Date String (YYYY-MM-DD hh:mm:ss) UTC,Instrument flags,Ambient pressure (hPa),Sample flow (lpm),Bypass flow (lpm),Sample temperature (°C),Ambient temperature (°C),ASC tube jacket temperature (°C),LED temperature (°C),Box temperature (°C),Sample RH (%),Span deviation,Mass concentration (μg/m³),Mass concentration (μg/m³),Mass concentration (μg/m³)
DateTimeUTC,F1_M11,P_M11,Q1_M11,Q2_M11,T1_M11,T2_M11,T3_M11,T4_M11,T5_M11,U1_M11,ZSPAN_M11,X0_M11,X2_M11,X1_M11
2022-10-05 10:00:00,,0832.5,5.00,0.00,29.1,27.5,00.0,37.8,30.9,21.7,0000.0,0008.27,0005.40,0005.16
2022-10-05 10:01:00,,0832.5,5.01,0.00,29.1,27.5,00.0,37.8,30.9,21.6,0000.0,0008.61,0005.42,0005.19
2022-10-05 10:02:00,,0832.6,5.00,0.00,29.1,27.5,00.0,37.8,30.9,21.6,0000.0,0008.86,0005.43,0005.17
2022-10-05 10:03:00,,0832.6,4.99,0.00,29.1,27.5,00.0,37.8,30.9,21.6,0000.0,0008.84,0005.42,0005.16
2022-10-05 10:04:00,,0832.6,5.01,0.00,29.1,27.6,00.0,37.8,30.9,21.6,0000.0,0008.86,0005.41,0005.14
2022-10-05 10:05:00,,0832.6,5.00,0.00,29.1,27.6,00.0,37.8,31.0,21.5,0000.0,0008.88,0005.40,0005.12
2022-10-05 10:06:00,,0832.6,4.99,0.00,29.1,27.6,00.0,37.8,31.0,21.4,0000.0,0008.84,0005.38,0005.09
2022-10-05 10:07:00,,0832.6,5.01,0.00,29.1,27.6,00.0,37.8,31.0,21.4,0000.0,0008.84,0005.35,0005.07
2022-10-05 10:08:00,,0832.6,5.00,0.00,29.1,27.6,00.0,37.8,31.0,21.4,0000.0,0008.86,0005.34,0005.05
2022-10-05 10:09:00,,0832.6,5.00,0.00,29.1,27.6,00.0,37.8,31.0,21.5,0000.0,0008.76,0005.34,0005.05
2022-10-05 10:10:00,,0832.6,5.01,0.00,29.1,27.6,00.0,37.8,31.0,21.5,0000.0,0008.56,0005.32,0005.04
2022-10-05 10:11:00,,0832.6,4.98,0.00,29.1,27.6,00.0,37.8,31.0,21.5,0000.0,0008.55,0005.30,0005.03
2022-10-05 10:12:00,,0832.6,5.01,0.00,29.1,27.6,00.0,37.8,31.0,21.5,0000.0,0008.64,0005.28,0005.02
2022-10-05 10:13:00,,0832.6,5.00,0.00,29.1,27.6,00.0,37.8,31.0,21.5,0000.0,0008.40,0005.28,0005.02
2022-10-05 10:14:00,,0832.6,4.99,0.00,29.1,27.6,00.0,37.8,31.0,21.6,0000.0,0008.44,0005.28,0005.01
2022-10-05 10:15:00,,0832.6,5.01,0.00,29.1,27.6,00.0,37.8,31.0,21.6,0000.0,0008.47,0005.29,0005.01
2022-10-05 10:16:00,,0832.6,5.01,0.00,29.1,27.6,00.0,37.8,31.0,21.7,0000.0,0008.50,0005.31,0005.03
2022-10-05 10:17:00,,0832.6,4.98,0.00,29.1,27.6,00.0,37.8,31.0,21.8,0000.0,0008.55,0005.34,0005.05
2022-10-05 10:18:00,,0832.6,5.00,0.00,29.1,27.6,00.0,37.8,30.9,21.7,0000.0,0008.63,0005.40,0005.08
2022-10-05 10:19:00,,0832.6,5.01,0.00,29.1,27.6,00.0,37.8,30.9,21.5,0000.0,0008.59,0005.40,0005.10
2022-10-05 10:20:00,,0832.6,4.99,0.00,29.1,27.6,00.0,37.8,31.0,21.5,0000.0,0008.57,0005.41,0005.12
2022-10-05 10:21:00,,0832.6,5.01,0.00,29.1,27.6,00.0,37.8,31.0,21.5,0000.0,0008.67,0005.46,0005.15
2022-10-05 10:22:00,,0832.6,4.99,0.00,29.1,27.6,00.0,37.8,31.0,21.6,0000.0,0008.73,0005.47,0005.18
2022-10-05 10:23:00,,0832.6,5.00,0.00,29.1,27.6,00.0,37.8,31.0,21.5,0000.0,0008.50,0005.50,0005.21
2022-10-05 10:24:00,,0832.6,5.01,0.00,29.1,27.6,00.0,37.8,31.0,21.4,0000.0,0008.54,0005.54,0005.24
2022-10-05 10:25:00,,0832.6,4.99,0.00,29.1,27.6,00.0,37.8,31.0,21.3,0000.0,0008.61,0005.60,0005.28
2022-10-05 10:26:00,,0832.6,5.02,0.00,29.1,27.6,00.0,37.8,31.0,21.3,0000.0,0008.66,0005.64,0005.30
2022-10-05 10:27:00,,0832.6,4.99,0.00,29.1,27.5,00.0,37.8,31.0,21.4,0000.0,0008.67,0005.66,0005.33
2022-10-05 10:28:00,,0832.6,5.01,0.00,29.1,27.5,00.0,37.8,30.9,21.5,0000.0,0008.69,0005.70,0005.36
2022-10-05 10:29:00,,0832.6,5.01,0.00,29.1,27.5,00.0,37.8,30.9,21.5,0000.0,0008.65,0005.70,0005.40
2022-10-05 10:30:00,,0832.6,4.99,0.00,29.1,27.5,00.0,37.8,30.9,21.8,0000.0,0008.83,0005.78,0005.45
2022-10-05 10:31:00,,0832.6,5.02,0.00,29.1,27.5,00.0,37.8,30.9,21.6,0000.0,0008.90,0005.83,0005.49
2022-10-05 10:32:00,,0832.6,4.99,0.00,29.1,27.5,00.0,37.8,30.9,21.5,0000.0,0008.96,0005.88,0005.52
2022-10-05 10:33:00,,0832.6,5.00,0.00,29.0,27.5,00.0,37.8,30.9,21.5,0000.0,0009.02,0005.96,0005.59
2022-10-05 10:34:00,,0832.6,5.00,0.00,29.0,27.5,00.0,37.8,30.9,21.4,0000.0,0009.03,0006.02,0005.63
2022-10-05 10:35:00,,0832.6,4.99,0.00,29.0,27.4,00.0,37.8,30.9,21.4,0000.0,0008.96,0006.02,0005.65
2022-10-05 10:36:00,,0832.6,5.01,0.00,29.0,27.4,00.0,37.8,30.9,21.4,0000.0,0008.93,0006.02,0005.68
2022-10-05 10:37:00,,0832.6,4.98,0.00,29.0,27.4,00.0,37.8,30.9,21.3,0000.0,0008.94,0006.05,0005.70
2022-10-05 10:38:00,,0832.6,5.00,0.00,29.0,27.4,00.0,37.8,30.9,21.2,0000.0,0008.93,0006.03,0005.70
2022-10-05 10:39:00,,0832.6,5.01,0.00,29.0,27.4,00.0,37.8,30.9,21.1,0000.0,0008.89,0006.02,0005.69
2022-10-05 10:40:00,,0832.6,5.01,0.00,29.0,27.4,00.0,37.8,30.9,21.2,0000.0,0008.85,0006.00,0005.70
2022-10-05 10:41:00,,0832.6,5.00,0.00,29.0,27.4,00.0,37.8,30.9,20.9,0000.0,0008.65,0005.95,0005.69
2022-10-05 10:42:00,,0832.6,5.00,0.00,29.0,27.4,00.0,37.8,30.8,21.0,0000.0,0008.61,0005.92,0005.66
2022-10-05 10:43:00,,0832.7,5.00,0.00,29.0,27.4,00.0,37.8,30.8,21.0,0000.0,0008.53,0005.88,0005.65
2022-10-05 10:44:00,,0832.6,4.99,0.00,29.0,27.4,00.0,37.8,30.8,20.9,0000.0,0008.45,0005.85,0005.62
2022-10-05 10:45:00,,0832.7,5.01,0.00,29.0,27.4,00.0,37.7,30.8,21.0,0000.0,0008.42,0005.84,0005.61
2022-10-05 10:46:00,,0832.6,5.01,0.00,29.0,27.4,00.0,37.7,30.8,21.1,0000.0,0008.47,0005.85,0005.60
2022-10-05 10:47:00,,0832.6,4.99,0.00,29.0,27.4,00.0,37.7,30.8,20.9,0000.0,0008.43,0005.83,0005.59
2022-10-05 10:48:00,,0832.7,5.00,0.00,29.0,27.4,00.0,37.7,30.8,20.8,0000.0,0008.42,0005.82,0005.58
2022-10-05 10:49:00,,0832.7,5.01,0.00,29.0,27.4,00.0,37.7,30.8,20.8,0000.0,0008.42,0005.85,0005.61
2022-10-05 10:50:00,,0832.7,4.99,0.00,29.0,27.4,00.0,37.7,30.8,20.7,0000.0,0008.44,0005.87,0005.62
2022-10-05 10:51:00,,0832.6,4.99,0.00,29.0,27.4,00.0,37.7,30.8,20.8,0000.0,0008.47,0005.88,0005.62
2022-10-05 10:52:00,,0832.6,5.02,0.00,29.0,27.4,00.0,37.7,30.8,20.9,0000.0,0008.50,0005.89,0005.62
2022-10-05 10:53:00,,0832.7,4.99,0.00,29.0,27.4,00.0,37.7,30.8,20.9,0000.0,0008.48,0005.92,0005.65
2022-10-05 10:54:00,,0832.7,5.00,0.00,29.0,27.4,00.0,37.7,30.8,21.0,-000.0,0008.52,0005.96,0005.70
2022-10-05 10:55:00,,0832.7,5.01,0.00,29.0,27.4,00.0,37.7,30.8,20.9,-000.0,0008.57,0005.97,0005.71
2022-10-05 10:56:00,,0832.7,4.99,0.00,28.9,27.3,00.0,37.7,30.8,20.8,0000.0,0008.52,0005.96,0005.72
2022-10-05 10:57:00,,0832.7,5.01,0.00,29.0,27.4,00.0,37.7,30.8,20.8,0000.0,0008.56,0005.97,0005.74
2022-10-05 10:58:00,,0832.7,4.99,0.00,28.9,27.4,00.0,37.7,30.8,20.7,0000.0,0008.58,0005.97,0005.73
2022-10-05 10:59:00,,0832.7,5.01,0.00,28.9,27.3,00.0,37.7,30.8,20.7,0000.0,0008.59,0005.98,0005.73
